Location: San Bernardino
(34.1083°N, 117.2898°W)
Time: 17:02:03
(UTC+00:00)

Daily predictions for brighter satellites

Satellite Brightness Start Highest point End
(mag) Time Altitude Azimuth Time Altitude Azimuth Time Altitude Azimuth
YAOGAN 6 3.7 12:04:45 10° NNW 12:07:11 23° WNW 12:07:11 23° WNW
H-2A R/B 2.4 12:02:57 10° NNE 12:07:56 65° ESE 12:13:02 10° S
Cosmos 1805 3.6 12:05:29 10° NNW 12:08:55 37° W 12:10:49 21° SSW
Cosmos 1707 4.2 12:11:12 10° SSE 12:14:35 37° E 12:17:59 10° NNE
DMSP B5D2-2 4.1 12:11:54 10° S 12:16:59 57° W 12:22:06 10° NNW
Cosmos 1553 Rocket 4.0 12:11:10 10° NNW 12:17:16 56° W 12:23:14 10° SSW
Iridium 51 4.2 12:15:52 15° SSW 12:18:29 44° W 12:21:43 10° NNW
Cosmos 1867 4.4 12:14:05 10° NW 12:18:35 27° WSW 12:23:03 10° SSW
Cosmos 1515 Rocket 3.5 12:16:12 10° SSW 12:20:36 68° W 12:25:03 10° N
Cosmos 921 Rocket 3.9 12:19:17 20° WSW 12:21:16 29° WNW 12:25:00 10° N
Cosmos 1461 3.1 12:20:19 10° NW 12:23:49 36° WSW 12:27:18 10° S
USA 290 4.2 12:23:08 10° N 12:25:55 31° ENE 12:28:41 10° SE
NOSS 2-2 (D) 4.5 12:25:14 10° NW 12:30:23 57° WSW 12:37:40 10° SSE
Cosmos 1470 Rocket 3.5 12:26:25 10° NNW 12:30:45 62° W 12:35:06 10° S
Cosmos 2278 Rocket 3.2 12:29:09 10° NW 12:33:30 23° W 12:37:51 10° SSW
USA 308 3.1 12:32:13 15° WSW 12:35:03 43° NW 12:38:47 10° NNE
Cosmos 1939 Rocket 2.6 12:32:50 10° N 12:36:36 81° WNW 12:40:22 10° SSW
Chandra Rocket (1) 3.1 12:33:51 14° WSW 12:36:39 45° SSE 12:45:12 10° E
Cosmos 1048 Rocket 4.2 12:38:44 10° SSW 12:43:58 56° WNW 12:49:10 10° N
YAOGAN 11 4.1 12:39:53 10° S 12:44:19 77° WSW 12:48:50 10° NNW
ATLAS 2AS CENTAUR R/B 3.5 12:37:48 10° WSW 12:44:35 38° NW 12:51:16 10° NNE
SL-16 R/B 2.9 12:40:50 10° SW 12:45:56 35° WNW 12:51:04 10° N
Cosmos 1975 4.4 12:44:20 10° NW 12:46:39 15° W 12:48:57 10° SW
Cosmos 1766 3.5 12:44:18 10° NNW 12:47:47 41° W 12:51:15 10° SSW
COSMO-SKYMED 1 3.9 12:46:16 10° SSE 12:50:25 47° ENE 12:54:35 10° N
Cosmos 1674 3.0 12:48:23 10° SSW 12:51:34 35° W 12:54:45 10° NNW
ARGOS 3.4 12:47:20 10° NNE 12:52:42 75° ESE 12:58:02 10° S
KORONAS-FOTON 4.0 12:49:26 10° SSW 12:52:58 45° W 12:56:29 10° N
